• Join FlightAware (Why Join?)
  • Login
  • US Flag 
02:22AM EST


 

Airport Tracker/Info


-or-


 

Live Flight TrackerFlight Track Log ✈ EJA922 ✈ 10-Dec-2013 ✈ MYNN / NAS - KAUS

Flight Track Log - Related Links

Times and Time Zones

All times are in EST time to prevent confusion due to time zone crossing. See the EJA922 flight status page for this flight to view local times or setup timezone preferences in your user account.

Time Position Orientation Groundspeed Altitude Reporting Facility
EST Latitude Longitude Course Direction KTS MPH feet Rate Location/Type
01:07PM 25.0489 -77.4025 275° West 508 585 5,700  Level Miami Center
01:08PM 25.0989 -77.4669 311° West 351 404 9,100 2,900 Climbing Miami Center
01:09PM 25.1425 -77.5336 306° West 323 372 11,500 2,400 Climbing Miami Center
01:10PM 25.2047 -77.6283 306° West 338 389 13,900 2,500 Climbing Miami Center
01:11PM 25.2669 -77.7253 305° West 373 429 16,500 2,150 Climbing Miami Center
01:12PM 25.3436 -77.8178 313° West 390 449 18,200 1,450 Climbing Miami Center
01:13PM 25.2907 -78.2114 275° West  Level Estimated
01:13PM 25.4286 -77.9058 317° Northwest 409 471 19,400  Level Miami Center
01:14PM 25.5136 -77.9964 316° Northwest 414 476 20,700 1,400 Climbing Miami Center
01:15PM 25.6008 -78.0869 317° Northwest 419 482 22,200 1,300 Climbing Miami Center
01:16PM 25.6561 -78.2028 298° West 426 490 23,300 1,200 Climbing Miami Center
01:17PM 25.6822 -78.3322 283° West 420 483 24,600 1,200 Climbing Miami Center
01:18PM 25.7206 -78.4619 288° West 426 490 25,700 1,100 Climbing Miami Center
01:19PM 25.7672 -78.5872 292° West 432 497 26,800 1,100 Climbing Miami Center
01:20PM 25.8114 -78.7169 291° West 442 509 27,900 1,050 Climbing Miami Center
01:21PM 25.8558 -78.8492 291° West 449 517 28,900 900 Climbing Miami Center
01:22PM 25.9039 -78.9817 292° West 454 522 29,700 850 Climbing Miami Center
01:23PM 25.9500 -79.1142 291° West 454 522 30,600 900 Climbing Miami Center
01:24PM 26.0000 -79.2656 290° West 468 539 31,500 950 Climbing Miami Center
01:25PM 26.0458 -79.3867 293° West 473 544 32,500 900 Climbing Miami Center
01:26PM 26.0917 -79.5219 291° West 473 544 33,300 800 Climbing Miami Center
01:27PM 26.1392 -79.6617 291° West 478 550 34,100 950 Climbing Miami Center
01:28PM 26.1886 -79.8042 291° West 478 550 35,200 1,200 Climbing Miami Center
01:29PM 26.2381 -79.9419 292° West 483 556 36,500 1,400 Climbing Miami Center
01:30PM 26.2889 -80.0961 290° West 483 556 38,000 750 Climbing Miami Center
01:31PM 26.3358 -80.2389 290° West 489 563 38,000  Level Miami Center
01:32PM 26.3786 -80.3700 290° West 499 574 38,000  Level Miami Center
01:33PM 26.4311 -80.5269 291° West 499 574 38,000  Level Miami Center
01:34PM 26.4739 -80.6583 290° West 494 568 38,000  Level Miami Center
01:35PM 26.5258 -80.8153 290° West 494 568 38,000 950 Level Miami Center
01:36PM 26.5742 -80.9564 291° West 489 563 39,900 1,000 Climbing Miami Center
01:37PM 26.6144 -81.0808 290° West 483 556 40,000 50 Climbing Miami Center
01:38PM 26.6606 -81.2219 290° West 483 556 40,000 150 Level Miami Center
01:39PM 26.7122 -81.3772 290° West 488 562 40,300 1,350 Climbing Miami Center
01:40PM 26.7561 -81.5092 290° West 479 551 42,700 1,350 Climbing Miami Center
01:41PM 26.7978 -81.6389 290° West 454 522 43,000 150 Climbing Miami Center
01:42PM 26.8375 -81.7592 290° West 454 522 43,000  Level Miami Center
01:43PM 26.8789 -81.8911 289° West 454 522 43,000  Level Miami Center
01:44PM 26.9222 -82.0281 290° West 454 522 43,000  Level Miami Center
01:45PM 26.9675 -82.1628 291° West 454 522 43,000  Level Miami Center
01:46PM 27.0106 -82.2931 290° West 454 522 43,000  Level Miami Center
01:47PM 27.0556 -82.4303 290° West 454 522 43,000  Level Miami Center
01:48PM 27.0981 -82.5653 290° West 454 522 43,000  Level Miami Center
01:49PM 27.1389 -82.6956 289° West 454 522 43,000  Level Miami Center
01:50PM 27.1833 -82.8306 290° West 454 522 43,000 -50 Level Miami Center
01:51PM 27.2239 -82.9611 289° West 454 522 42,900  Descending Miami Center
01:52PM 27.2661 -83.0942 290° West 454 522 43,000 50 Climbing Miami Center
01:53PM 27.3042 -83.2292 288° West 454 522 43,000  Level Miami Center
01:54PM 27.3464 -83.3600 290° West 454 522 43,000  Level Miami Center
01:55PM 27.3881 -83.4933 289° West 454 522 43,000  Level Miami Center
01:56PM 27.4300 -83.6242 290° West 454 522 43,000  Level Miami Center
01:57PM 27.4675 -83.7597 287° West 454 522 43,000  Level Miami Center
01:58PM 27.5069 -83.8908 289° West 449 517 43,000  Level Miami Center
01:59PM 27.5483 -84.0242 289° West 449 517 43,000 -50 Level Miami Center
02:00PM 27.5936 -84.1606 291° West 449 517 42,900  Descending Miami Center
02:01PM 27.6306 -84.2939 287° West 449 517 43,000  Climbing Miami Center
02:03PM 27.7092 -84.5336 290° West 451 519 42,900  Descending Houston Center
02:04PM 27.7378 -84.6250 289° West 465 535 43,000 64 Climbing Jacksonville Center
02:05PM 27.7772 -84.7758 286° West 459 528 43,000  Level Jacksonville Center
02:06PM 27.8150 -84.9033 289° West 451 519 43,000  Level Jacksonville Center
02:07PM 27.8567 -85.0308 290° West 442 509 43,000  Level Jacksonville Center
02:08PM 27.8961 -85.1631 289° West 442 509 43,000  Level Jacksonville Center
02:09PM 27.9333 -85.3003 287° West 447 514 43,000  Level Jacksonville Center
02:10PM 27.9725 -85.4375 288° West 448 516 43,000  Level Jacksonville Center
02:11PM 28.0136 -85.5700 289° West 442 509 43,000  Level Jacksonville Center
02:12PM 28.0503 -85.7050 287° West 441 507 43,000  Level Jacksonville Center
02:13PM 28.0892 -85.8331 289° West 447 514 43,000  Level Jacksonville Center
02:14PM 28.1194 -85.9728 284° West 447 514 43,000  Level Jacksonville Center
02:15PM 28.1494 -86.1056 284° West 442 509 43,000  Level Jacksonville Center
02:16PM 28.1775 -86.2383 284° West 443 510 43,000  Level Jacksonville Center
02:17PM 28.2092 -86.3783 284° West 438 504 43,000  Level Jacksonville Center
02:18PM 28.2347 -86.5086 283° West 444 511 43,000  Level Jacksonville Center
02:20PM 28.2917 -86.7703 284° West 440 506 43,000  Level Houston Center
02:21PM 28.3211 -86.9047 284° West 440 506 43,000  Level Houston Center
02:22PM 28.3481 -87.0383 283° West 437 503 43,000 -48 Level Houston Center
02:23PM 28.3753 -87.1717 283° West 434 499 42,900  Descending Houston Center
02:24PM 28.4033 -87.3053 283° West 434 499 43,000 49 Climbing Houston Center
02:25PM 28.4358 -87.4681 283° West 439 505 43,000  Level Houston Center
02:26PM 28.4636 -87.6003 283° West 432 497 43,000  Level Houston Center
02:27PM 28.4906 -87.7339 283° West 434 499 43,000  Level Houston Center
02:28PM 28.5181 -87.8678 283° West 436 502 43,000  Level Houston Center
02:29PM 28.5439 -88.0019 282° West 434 499 43,000  Level Houston Center
02:30PM 28.5822 -88.1428 287° West 437 503 43,000  Level Houston Center
02:31PM 28.6392 -88.2678 297° West 444 511 43,000  Level Houston Center
02:32PM 28.6936 -88.3925 296° West 443 510 43,000  Level Houston Center
02:33PM 28.7264 -88.5511 283° West 427 491 43,000  Level Houston Center
02:34PM 28.7486 -88.6853 281° West 431 496 43,000  Level Houston Center
02:35PM 28.7703 -88.8169 281° West 426 490 43,000  Level Houston Center
02:36PM 28.7919 -88.9497 281° West 426 490 43,000  Level Houston Center
02:37PM 28.8147 -89.0828 281° West 429 494 43,000  Level Houston Center
02:38PM 28.8406 -89.2419 281° West 425 489 43,000  Level Houston Center
02:39PM 28.8617 -89.3725 280° West 421 484 43,000  Level Houston Center
02:40PM 28.8822 -89.5050 280° West 423 487 43,000  Level Houston Center
02:42PM 28.9039 -89.6389 281° West 429 494 43,000  Level Houston Center
02:43PM 28.9244 -89.7722 280° West 428 493 43,000  Level Houston Center
02:44PM 28.9450 -89.9042 280° West 424 488 43,000  Level Houston Center
02:45PM 28.9703 -90.0633 280° West 425 489 43,000  Level Houston Center
02:46PM 28.9908 -90.1944 280° West 421 484 43,000  Level Houston Center
02:47PM 29.0114 -90.3272 280° West 423 487 43,000  Level Houston Center
02:48PM 29.0311 -90.4594 280° West 422 486 43,000  Level Houston Center
02:49PM 29.0508 -90.5911 280° West 422 486 43,000  Level Houston Center
02:50PM 29.0714 -90.7239 280° West 423 487 43,000  Level Houston Center
02:51PM 29.0958 -90.8819 280° West 422 486 43,000  Level Houston Center
02:52PM 29.1156 -91.0153 280° West 424 488 43,000  Level Houston Center
02:53PM 29.1353 -91.1475 280° West 423 487 43,000  Level Houston Center
02:54PM 29.1547 -91.2794 280° West 421 484 43,000  Level Houston Center
02:55PM 29.1744 -91.4114 280° West 421 484 43,000  Level Houston Center
02:56PM 29.1933 -91.5436 279° West 421 484 43,000  Level Houston Center
02:57PM 29.2156 -91.7036 279° West 426 490 43,000  Level Houston Center
02:58PM 29.2339 -91.8261 280° West 424 488 43,000  Level Houston Center
02:59PM 29.2519 -91.9589 279° West 423 487 43,000  Level Houston Center
03:00PM 29.2708 -92.0928 279° West 427 491 43,000  Level Houston Center
03:01PM 29.2939 -92.2525 279° West 424 488 43,000  Level Houston Center
03:02PM 29.3114 -92.3875 278° West 427 491 43,000  Level Houston Center
03:03PM 29.3292 -92.5200 279° West 424 488 43,000  Level Houston Center
03:04PM 29.3483 -92.6547 279° West 425 489 43,000  Level Houston Center
03:05PM 29.3664 -92.7872 279° West 424 488 43,000  Level Houston Center
03:06PM 29.3844 -92.9206 279° West 423 487 43,000  Level Houston Center
03:07PM 29.4056 -93.0806 279° West 424 488 43,000  Level Houston Center
03:08PM 29.4231 -93.2136 279° West 422 486 43,000  Level Houston Center
03:09PM 29.4411 -93.3467 279° West 422 486 43,000  Level Houston Center
03:11PM 29.4586 -93.4822 278° West 425 489 43,000  Level Houston Center
03:12PM 29.4756 -93.6156 278° West 424 488 43,000  Level Houston Center
03:13PM 29.4925 -93.7469 278° West 418 481 43,000 -96 Level Houston Center
03:14PM 29.5125 -93.9069 278° West 419 482 42,800 -532 Descending Houston Center
03:15PM 29.5292 -94.0397 278° West 421 484 41,900 -871 Descending Houston Center
03:16PM 29.5450 -94.1686 278° West 420 483 41,000 -968 Descending Houston Center
03:17PM 29.5619 -94.3022 278° West 423 487 39,900 -871 Descending Houston Center
03:18PM 29.5775 -94.4367 278° West 426 490 39,200 -720 Descending Houston Center
03:19PM 29.5978 -94.5978 278° West 425 489 38,400 -576 Descending Houston Center
03:20PM 29.6136 -94.7319 278° West 424 488 38,000 -532 Descending Houston Center
03:21PM 29.6297 -94.8667 278° West 426 490 37,300 -1,113 Descending Houston Center
03:22PM 29.6456 -95.0025 278° West 430 495 35,700 -1,500 Descending Houston Center
03:23PM 29.6631 -95.1492 278° West 435 501 34,200 -1,790 Descending Houston Center
03:24PM 29.6800 -95.3006 277° West 444 511 32,000 -1,776 Descending Houston Center
03:25PM 29.6967 -95.4444 278° West 456 525 30,500 -1,104 Descending Houston Center
03:26PM 29.7125 -95.5875 277° West 455 524 29,700 -1,258 Descending Houston Center
03:27PM 29.7325 -95.7583 278° West 451 519 27,900 -1,403 Descending Houston Center
03:28PM 29.7483 -95.8975 277° West 443 510 26,800 -1,210 Descending Houston Center
03:29PM 29.7744 -96.0319 283° West 433 498 25,400 -1,645 Descending Houston Center
03:30PM 29.8186 -96.1631 291° West 438 504 23,400 -1,584 Descending Houston Center
03:31PM 29.8611 -96.2914 291° West 432 497 22,100 -1,392 Descending Houston Center
03:32PM 29.9014 -96.4156 291° West 417 480 20,500 -1,887 Descending Houston Center
03:33PM 29.9489 -96.5608 291° West 407 468 18,200 -2,177 Descending Houston Center
03:34PM 29.9886 -96.6808 291° West 397 457 16,000 -1,597 Descending Houston Center
03:35PM 30.0272 -96.7992 291° West 390 449 14,900 -823 Descending Houston Center
03:36PM 30.0639 -96.9142 290° West 382 440 14,300 -624 Descending Houston Center
03:37PM 30.0833 -97.0347 281° West 384 442 13,600 -1,104 Descending Houston Center
03:38PM 30.0781 -97.1553 267° West 372 428 12,000 -1,742 Descending Houston Center
03:40PM 30.0344 -97.2747 247° West 342 394 10,000 -1,742 Descending Houston Center
03:41PM 29.9975 -97.3492 240° Southwest 280 322 8,400 -1,790 Descending Houston Center
03:42PM 29.9794 -97.4294 255° West 271 312 6,300 -2,032 Descending Houston Center
03:43PM 30.0186 -97.5089 300° West 283 326 4,200 -1,584 Descending Houston Center
03:44PM 30.0594 -97.5864 301° West 281 323 3,000 -960 Descending Houston Center
03:45PM 30.0939 -97.6447 304° West 252 290 2,200 -677 Descending Houston Center
03:46PM 30.1300 -97.6569 344° North 173 199 1,600 -435 Descending Houston Center
03:47PM 30.1706 -97.6572 360° North 158 182 1,300 -290 Descending Houston Center
03:49PM 30.1833 -97.6667 319° Northwest  Level FlightAware Approximate